EN

Hourly Weather Bolshie Lzi

Today, 25 October, Sunday

Time Temperature Precipitation Wind Pressure Humidity
00:00 +6°C° 0.8 mm 2 mps 749 mmHg 93%
01:00 +6°C° 0.8 mm 2 mps 749 mmHg 95%
02:00 +6°C° 0.8 mm 2 mps 749 mmHg 96%
03:00 +7°C° 0.1 mm 2 mps 749 mmHg 96%
04:00 +7°C° 0.1 mm 2 mps 750 mmHg 96%
05:00 +7°C° 0.1 mm 2 mps 750 mmHg 95%
06:00 +7°C° 0 mm 2 mps 750 mmHg 95%
07:00 +7°C° 0 mm 2 mps 751 mmHg 95%
08:00 +7°C° 0 mm 2 mps 751 mmHg 95%
09:00 +8°C° 0 mm 2 mps 752 mmHg 94%
10:00 +8°C° 0 mm 2 mps 752 mmHg 92%
11:00 +9°C° 0 mm 2 mps 753 mmHg 90%
12:00 +9°C° 0.1 mm 2 mps 753 mmHg 88%
13:00 +9°C° 0.1 mm 2 mps 754 mmHg 87%
14:00 +9°C° 0.1 mm 2 mps 754 mmHg 85%
15:00 +9°C° 0 mm 2 mps 754 mmHg 88%
16:00 +9°C° 0 mm 1 mps 755 mmHg 90%
17:00 +8°C° 0 mm 1 mps 755 mmHg 93%
18:00 +8°C° 0 mm 1 mps 755 mmHg 93%
19:00 +7°C° 0 mm 1 mps 756 mmHg 94%
20:00 +7°C° 0 mm 1 mps 756 mmHg 94%
21:00 +7°C° 0 mm 1 mps 756 mmHg 94%
22:00 +7°C° 0 mm 1 mps 756 mmHg 94%
23:00 +7°C° 0 mm 1 mps 756 mmHg 94%

Tomorrow, 26 October, Monday

Time Temperature Precipitation Wind Pressure Humidity
00:00 +7°C° 0 mm 1 mps 757 mmHg 93%
01:00 +7°C° 0 mm 1 mps 757 mmHg 93%
02:00 +8°C° 0 mm 1 mps 757 mmHg 92%
03:00 +8°C° 0 mm 1 mps 757 mmHg 93%
04:00 +7°C° 0 mm 2 mps 757 mmHg 94%
05:00 +6°C° 0 mm 2 mps 757 mmHg 95%
06:00 +7°C° 0 mm 2 mps 757 mmHg 95%
07:00 +7°C° 0 mm 2 mps 757 mmHg 96%
08:00 +7°C° 0 mm 2 mps 757 mmHg 96%
09:00 +8°C° 0 mm 2 mps 757 mmHg 93%
10:00 +8°C° 0 mm 2 mps 757 mmHg 91%
11:00 +9°C° 0 mm 2 mps 757 mmHg 88%
12:00 +10°C° 0 mm 2 mps 757 mmHg 86%
13:00 +10°C° 0 mm 3 mps 757 mmHg 84%
14:00 +11°C° 0 mm 3 mps 757 mmHg 83%
15:00 +10°C° 0 mm 3 mps 757 mmHg 86%
16:00 +10°C° 0 mm 3 mps 757 mmHg 89%
17:00 +9°C° 0 mm 3 mps 757 mmHg 92%
18:00 +9°C° 0 mm 3 mps 757 mmHg 93%
19:00 +9°C° 0 mm 3 mps 757 mmHg 93%
20:00 +9°C° 0 mm 3 mps 757 mmHg 94%
21:00 +8°C° 0 mm 4 mps 756 mmHg 93%
22:00 +8°C° 0 mm 4 mps 756 mmHg 92%
23:00 +10°C° 0 mm 4 mps 756 mmHg 91%

Day after tomorrow, 27 October, Tuesday

Time Temperature Precipitation Wind Pressure Humidity
00:00 +10°C° 0.2 mm 4 mps 756 mmHg 90%
01:00 +10°C° 0.2 mm 4 mps 756 mmHg 89%
02:00 +10°C° 0.2 mm 4 mps 756 mmHg 89%
03:00 +10°C° 0 mm 4 mps 756 mmHg 89%
04:00 +10°C° 0 mm 4 mps 756 mmHg 89%
05:00 +10°C° 0 mm 4 mps 755 mmHg 89%
06:00 +8°C° 0 mm 4 mps 755 mmHg 89%
07:00 +8°C° 0 mm 4 mps 755 mmHg 90%
08:00 +8°C° 0 mm 4 mps 755 mmHg 90%
09:00 +10°C° 0 mm 4 mps 755 mmHg 88%
10:00 +10°C° 0 mm 4 mps 755 mmHg 85%
11:00 +11°C° 0 mm 4 mps 755 mmHg 82%
12:00 +11°C° 0 mm 4 mps 755 mmHg 81%
13:00 +12°C° 0 mm 5 mps 755 mmHg 80%
14:00 +12°C° 0 mm 5 mps 755 mmHg 79%
15:00 +12°C° 0 mm 4 mps 755 mmHg 81%
16:00 +11°C° 0 mm 4 mps 755 mmHg 83%
17:00 +11°C° 0 mm 4 mps 755 mmHg 86%
18:00 +11°C° 0 mm 4 mps 755 mmHg 85%
19:00 +11°C° 0 mm 4 mps 755 mmHg 85%
20:00 +11°C° 0 mm 4 mps 755 mmHg 85%
21:00 +11°C° 0 mm 4 mps 755 mmHg 85%
22:00 +11°C° 0 mm 4 mps 755 mmHg 86%
23:00 +11°C° 0 mm 4 mps 755 mmHg 86%

28 October, Wednesday

Time Temperature Precipitation Wind Pressure Humidity
00:00 +10°C° 0 mm 4 mps 755 mmHg 87%
01:00 +10°C° 0 mm 4 mps 755 mmHg 89%
02:00 +8°C° 0 mm 4 mps 754 mmHg 90%
03:00 +8°C° 0 mm 4 mps 754 mmHg 90%
04:00 +8°C° 0 mm 4 mps 754 mmHg 90%
05:00 +8°C° 0 mm 4 mps 753 mmHg 90%
06:00 +8°C° 0 mm 5 mps 753 mmHg 89%
07:00 +8°C° 0 mm 5 mps 753 mmHg 89%
08:00 +8°C° 0 mm 5 mps 753 mmHg 88%
09:00 +9°C° 0 mm 5 mps 754 mmHg 87%
10:00 +9°C° 0 mm 5 mps 754 mmHg 86%
11:00 +10°C° 0 mm 5 mps 755 mmHg 85%
12:00 +11°C° 0 mm 4 mps 755 mmHg 86%
13:00 +11°C° 0 mm 3 mps 755 mmHg 86%
14:00 +11°C° 0 mm 3 mps 756 mmHg 87%
15:00 +12°C° 0 mm 2 mps 756 mmHg 89%
16:00 +12°C° 0 mm 2 mps 756 mmHg 90%
17:00 +12°C° 0 mm 2 mps 756 mmHg 92%
18:00 +12°C° 0.1 mm 2 mps 757 mmHg 92%
19:00 +10°C° 0.1 mm 2 mps 757 mmHg 92%
20:00 +10°C° 0.1 mm 2 mps 757 mmHg 92%
21:00 +10°C° 0.1 mm 2 mps 757 mmHg 92%
22:00 +10°C° 0.1 mm 2 mps 757 mmHg 92%
23:00 +12°C° 0.1 mm 2 mps 756 mmHg 91%

29 October, Thursday

Time Temperature Precipitation Wind Pressure Humidity
00:00 +11°C° 0 mm 3 mps 756 mmHg 91%
01:00 +11°C° 0 mm 3 mps 756 mmHg 91%
02:00 +11°C° 0 mm 3 mps 756 mmHg 91%
03:00 +11°C° 0 mm 3 mps 756 mmHg 91%
04:00 +11°C° 0 mm 3 mps 756 mmHg 91%
05:00 +11°C° 0 mm 3 mps 756 mmHg 91%
06:00 +10°C° 0 mm 3 mps 756 mmHg 91%
07:00 +10°C° 0 mm 3 mps 756 mmHg 91%
08:00 +10°C° 0 mm 3 mps 756 mmHg 91%
09:00 +11°C° 0 mm 3 mps 756 mmHg 88%
10:00 +11°C° 0 mm 3 mps 756 mmHg 86%
11:00 +11°C° 0 mm 3 mps 756 mmHg 83%
12:00 +12°C° 0 mm 3 mps 756 mmHg 83%
13:00 +12°C° 0 mm 3 mps 755 mmHg 83%
14:00 +12°C° 0 mm 3 mps 755 mmHg 83%
15:00 +11°C° 0.1 mm 3 mps 755 mmHg 84%
16:00 +11°C° 0.1 mm 3 mps 755 mmHg 86%
17:00 +10°C° 0.1 mm 3 mps 755 mmHg 87%
18:00 +10°C° 0 mm 3 mps 755 mmHg 87%
19:00 +10°C° 0 mm 3 mps 755 mmHg 87%
20:00 +10°C° 0 mm 3 mps 755 mmHg 86%
21:00 +10°C° 0 mm 3 mps 755 mmHg 87%
22:00 +10°C° 0 mm 3 mps 755 mmHg 89%
23:00 +10°C° 0 mm 3 mps 755 mmHg 90%

30 October, Friday

Time Temperature Precipitation Wind Pressure Humidity
00:00 +9°C° 0 mm 3 mps 755 mmHg 91%
01:00 +9°C° 0 mm 3 mps 754 mmHg 92%
02:00 +9°C° 0 mm 3 mps 754 mmHg 94%
03:00 +9°C° 0.2 mm 3 mps 754 mmHg 94%
04:00 +9°C° 0.2 mm 3 mps 754 mmHg 93%
05:00 +10°C° 0.2 mm 3 mps 754 mmHg 93%
06:00 +9°C° 0 mm 3 mps 754 mmHg 94%
07:00 +9°C° 0 mm 2 mps 755 mmHg 94%
08:00 +8°C° 0 mm 2 mps 755 mmHg 95%
09:00 +9°C° 0 mm 3 mps 755 mmHg 92%
10:00 +9°C° 0 mm 3 mps 755 mmHg 89%
11:00 +9°C° 0 mm 3 mps 755 mmHg 86%
12:00 +9°C° 0 mm 3 mps 755 mmHg 85%
13:00 +9°C° 0 mm 3 mps 754 mmHg 83%
14:00 +10°C° 0 mm 3 mps 754 mmHg 82%
15:00 +8°C° 0 mm 4 mps 754 mmHg 81%
16:00 +8°C° 0 mm 4 mps 753 mmHg 80%
17:00 +8°C° 0 mm 4 mps 753 mmHg 80%
18:00 +8°C° 0.3 mm 4 mps 753 mmHg 82%
19:00 +8°C° 0.3 mm 5 mps 752 mmHg 84%
20:00 +8°C° 0.3 mm 5 mps 752 mmHg 86%
21:00 +8°C° 1.1 mm 5 mps 751 mmHg 87%
22:00 +9°C° 1.1 mm 5 mps 751 mmHg 89%
23:00 +9°C° 1.1 mm 5 mps 751 mmHg 90%
Show more